User: anonymous   Login
Location: Unspecified
(0.0000°N, 0.0000°E)
Time: 13:08:46
(UTC+00:00)
Language:

KAITUO 1B - Orbit

View from above orbital plane
View from above orbital plane
View from above satellite
View from above satellite

Ground track
Ground track

The orbit data is extracted from the following two-line orbital elements,

1 40912U 15049P   21016.10324931  .00001537  00000-0  72353-4 0  9998
2 40912  97.4465  27.3723 0013531 321.0493 110.4140 15.20990735295033
Epoch (UTC): 16 January 2021 02:28:40
Eccentricity: 0.0013531
inclination: 97.4465°
perigee height: 493 km
apogee height: 512 km
right ascension of ascending node: 27.3723°
argument of perigee: 321.0493°
revolutions per day: 15.20990735
mean anomaly at epoch: 110.4140°
orbit number at epoch: 29503

The dashed part of the orbit path shows where the satellite is in the earth's shadow,  

DLR